Location: Napier
(39.4830°S, 176.9170°E)
Time: 10:49:38
(UTC+13:00)

Cosmos 2219 Rocket - Pass Details

Date: 24 January 2019
Orbit: 829 x 845 km, 71.0° (Epoch: 14 February)

Event Time Altitude Azimuth Distance (km) Brightness Sun altitude
Exits shadow 23:36:18 75° 32° (NNE) 882 2.0 -26.1°
Maximum altitude 23:36:37 78° 69° (ENE) 873 2.0 -26.1°
Drops below altitude 10° 23:42:21 10° 154° (SSE) 2,495 5.1 -26.6°
Sets 23:44:49 0° 155° (SSE) 3,439 5.9 -26.9°
